www.pogodaiklimat.ru
ПОГОДА в Ратнагири
Время
(UTC), дата
18 14.09
21 14.09
00 15.09
03 15.09
06 15.09
09 15.09
12 15.09
15 15.09
18 15.09
21 15.09
00 16.09
03 16.09
06 16.09
09 16.09
12 16.09
15 16.09
18 16.09
21 16.09
00 17.09
03 17.09
06 17.09
09 17.09
12 17.09
15 17.09
18 17.09
21 17.09
00 18.09
03 18.09
06 18.09
09 18.09
12 18.09
15 18.09
18 18.09
21 18.09
00 19.09
03 19.09
06 19.09
09 19.09
12 19.09
15 19.09
18 19.09
21 19.09
00 20.09
03 20.09
06 20.09
09 20.09
12 20.09
15 20.09
18 20.09
21 20.09
00 21.09
03 21.09
06 21.09
09 21.09
12 21.09
Ветер
(напр.,м/с)
Видим. Явления Облачность Т
(С)
Тd
(С)
f
(%)
Тe
(С)
Тes
(С)
Комфортность P
(гПа)
Po
(гПа)
Тmin
(С)
Tmax
(С)
R
(мм)
R24
(мм)
S
(см)
штиль 0 4000 м слаб. дождь {морось} 10/8 240 м
[Frnb As op]
+24.2 +23.6 96 +33 +33 очень
душно
1008.9 1001.2 40
штиль 0 2000 м {дождь, морось} 10/8 240 м
[Frnb As op]
+24.0 +23.4 96 +32 +32 очень
душно
1007.0 999.3 41
штиль 0 4000 м {дождь, морось} 10/5 540 м
[Sc As trans]
+23.6 +23.3 98 +32 +32 очень
душно
1006.7 999.0 41
ЮВ 1 4000 м 10/3 540 м
[Sc Ac As]
+24.2 +23.3 95 +32 +34 очень
душно
1008.6 1000.9 +23.3 41
штиль 0 10 км 9/6 540 м
[Sc diur, vesp Ac As]
+28.4 +24.1 78 +40 +44 очень
душно
1008.4 1000.8
З 2 10 км 9/6 600 м
[Cu Sc Ac trans Ci fib]
+28.6 +24.3 78 +40 +45 очень
душно
1006.0 998.4
СЗ 1 4000 м 9/8 540 м
[Cu Sc Ac trans Ci fib]
+28.0 +24.3 80 +39 +39 очень
душно
1005.1 997.5 +30.5
штиль 0 2000 м 10/8 360 м
[Cu hum As op Ci sp]
+25.4 +24.2 93 +35 +35 очень
душно
1007.8 1000.1 1
штиль 0 4000 м в посл. час дождь 10/8 360 м
[Frnb As op]
+24.8 +23.9 95 +34 +34 очень
душно
1008.4 1000.7 11
штиль 0 2000 м мгла 9/6 360 м
[Frnb As trans]
+24.6 +24.0 96 +34 +34 очень
душно
1006.2 998.5 11
штиль 0 4000 м {туман} 6/6 540 м
[Sc]
+24.2 +23.3 95 +32 +32 очень
душно
1006.7 999.0 11
штиль 0 2000 м мгла 10/6 360 м
[Frnb Ac As]
+25.0 +24.1 95 +34 +35 очень
душно
1009.2 1001.5 +23.6 11
штиль 0 4000 м мгла 10/8 360 м
[Frnb Ac trans]
+26.6 +24.3 87 +37 +39 очень
душно
1009.3 1001.6
З 2 10 км {морось} 10/9 540 м
[Sc diur, vesp Ac As]
+28.2 +24.8 82 +40 +41 очень
душно
1006.2 998.6
СЗ 2 10 км 10/9 540 м
[Sc diur, vesp Ac As]
+28.0 +24.6 82 +40 +40 очень
душно
1005.6 998.0 +29.6
СЗ 3 4000 м слаб. дождь {гроза} 10/8 360 м
[Cb cap As op]
+25.0 +24.1 95 +34 +34 очень
душно
1008.4 1000.7 4
штиль 0 4000 м дождь {гроза} 10/9 360 м
[Frnb As op]
+25.0 +24.4 96 +35 +35 очень
душно
1009.2 1001.5 26
СЗ 1 4000 м дождь 10/9 360 м
[Frnb As op]
+24.4 +24.1 98 +34 +34 очень
душно
1007.2 999.5 62
штиль 0 200 м туман {дождь} 10/9 360 м
[Frnb As op]
+24.4 +24.1 98 +34 +34 очень
душно
1007.2 999.5 75
штиль 0 4000 м в посл. час морось {дождь} 10/9 240 м
[Frnb Ac As]
+25.0 +24.1 95 +34 +35 очень
душно
1009.4 1001.7 +23.7 76
С 1 4000 м {дождь, морось} 10/5 240 м
[Frnb Ac As]
+27.4 +24.8 86 +39 +42 очень
душно
1009.6 1001.9
СЗ 1 10 км 9/6 540 м
[Sc diur, vesp Ac trans Ci fib]
+29.4 +23.6 71 +40 +45 очень
душно
1006.7 999.1
З 1 10 км 9/6 600 м
[Sc diur, vesp Ac trans Ci fib]
+28.2 +23.6 76 +38 +39 очень
душно
1006.3 998.7 +30.3
штиль 0 4000 м 5/4 600 м
[Sc Ac trans]
+26.4 +24.4 89 +37 +37 очень
душно
1008.4 1000.7
штиль 0 4000 м 6/6 600 м
[Sc]
+25.8 +24.6 93 +36 +36 очень
душно
1009.0 1001.3
С 1 4000 м слаб. морось {дождь} 10/8 360 м
[Frnb Ac As]
+24.8 +23.6 93 +34 +34 очень
душно
1006.7 999.0 0.1
штиль 0 4000 м {дождь, морось} 8/6 540 м
[Sc Ac trans]
+24.8 +23.9 95 +34 +34 очень
душно
1006.4 998.7 0.1
штиль 0 2000 м в посл. час дождь 10/8 540 м
[Sc diur, vesp As trans]
+25.0 +23.8 93 +34 +35 очень
душно
1008.8 1001.1 +24.5 1
штиль 0 4000 м слаб. морось {дождь} 10/8 360 м
[Frnb As trans]
+27.0 +23.8 83 +37 +39 очень
душно
1009.0 1001.3
З 2 10 км {морось} 10/8 360 м
[Frnb Ac As]
+28.0 +24.6 82 +40 +41 очень
душно
1006.2 998.6 0.0
С 2 4000 м слаб. дождь {морось} 10/9 360 м
[Frnb As op]
+24.6 +24.0 96 +34 +34 очень
душно
1005.4 997.7 +29.2 8
штиль 0 4000 м {дождь} 9/5 540 м
[Sc Ac As]
+24.4 +23.2 93 +33 +33 очень
душно
1006.2 998.5 8
штиль 0 4000 м 9/5 540 м
[Sc Ac As]
+24.0 +23.1 95 +32 +32 очень
душно
1006.9 999.2 8
В 1 4000 м 5/4 600 м
[Sc Ac trans]
+23.4 +22.8 96 +33 +33 очень
душно
1004.1 996.4 8
ЮВ 1 4000 м 8/6 600 м
[Sc Ac trans]
+23.2 +22.6 96 +32 +32 очень
душно
1004.2 996.5 8
В 1 10 км 10/1 540 м
[Sc Ac As]
+24.2 +23.3 95 +32 +34 очень
душно
1006.3 998.6 +22.9 8
штиль 0 10 км 10/5 540 м
[Sc diur, vesp Ac As]
+27.4 +23.9 81 +38 +41 очень
душно
1006.5 998.9
З 3 4000 м 10/8 540 м
[Cu Sc Ac trans]
+28.6 +24.4 78 +40 +41 очень
душно
1003.4 995.8
З 2 4000 м слаб. дождь 10/8 300 м
[Frnb Ac As]
+27.0 +24.1 84 +37 +38 очень
душно
1002.6 995.0 +29.6 0.0
штиль 0 4000 м 9/8 540 м
[Sc Ac As]
+25.8 +24.1 90 +36 +36 очень
душно
1004.5 996.8 0.0
штиль 0 4000 м 10/9 540 м
[Sc Ac As]
+25.4 +24.2 93 +35 +35 очень
душно
1004.8 997.1 0.0
штиль 0 4000 м 10/8 540 м
[Sc Ac As]
+25.2 +24.2 94 +35 +35 очень
душно
1002.8 995.1 0.0
штиль 0 4000 м 8/6 600 м
[Sc Ac trans]
+24.6 +24.0 96 +34 +34 очень
душно
1002.3 994.6 0.0
штиль 0 4000 м 10/8 540 м
[Sc As trans]
+25.6 +24.7 95 +36 +37 очень
душно
1003.7 996.0 +24.5 0.0
штиль 0 4000 м в посл. час дождь {морось} 10/8 360 м
[Frnb As trans]
+28.6 +26.1 86 +43 +45 опасность
перегрева
1004.0 996.4 0.5
З 2 10 км {дождь, морось} 10/9 540 м
[Sc diur, vesp Ac As]
+28.4 +25.6 85 +42 +43 опасность
перегрева
1001.9 994.3 3
З 2 10 км {дождь} 10/8 360 м
[Frnb As op]
+27.6 +24.5 83 +39 +39 очень
душно
1001.2 993.6 +30.4 3
штиль 0 4000 м сильн. дождь 10/9 360 м
[Frnb As op]
+26.2 +25.3 95 +38 +38 очень
душно
1003.2 995.6 8
штиль 0 4000 м слаб. морось {дождь} 10/9 360 м
[Frnb As op]
+25.6 +24.7 95 +36 +36 очень
душно
1003.1 995.4 18
В 1 4000 м 10/8 360 м
[Frnb As op]
+24.8 +24.2 96 +34 +34 очень
душно
1001.4 993.7 18
В 1 4000 м 9/6 540 м
[Sc Ac trans]
+24.6 +24.3 98 +34 +34 очень
душно
1001.2 993.5 18
ЮВ 1 4000 м 6/3 540 м
[Sc diur, vesp Ac trans]
+27.0 +24.7 87 +38 +41 очень
душно
1002.9 995.3 +24.4 18
З 1 4000 м мгла 9/6 540 м
[Sc diur, vesp Ac trans Cc]
+29.2 +25.2 79 +42 +48 опасность
перегрева
1003.0 995.4
штиль 0 2000 м слаб. дождь {гроза} 9/8 540 м
[Cb cap As trans]
+26.8 +26.0 95 +40 +43 очень
душно
1000.6 993.0 13
СЗ 1 4000 м в посл. час дождь {гроза} 9/8 540 м
[Cu Sc Ac As]
+28.0 +25.7 87 +41 +42 опасность
перегрева
1000.4 992.8 +30.4 13
Местоположение метеостанции Ратнагири (Махараштра, Индия): широта 16.98 долгота 73.33 высота над уровнем моря 67 м.
В архиве по умолчанию представлена погода в Ратнагири за последнюю неделю. Архивные данные за месяц целиком и за предыдущие месяцы, начиная с января 2011 года, Вы можете получить, выбрав интересующий диапазон дат из раскрывающегося списка и нажав кнопку "Найти!".
*Определитесь, кто Вы:
Внимание! Время в таблицах - всемирное. Для получения местного времени необходимо прибавить поправку, которая равна 5.5 ч.
Смотрите также архив погоды в соседних городах и на ближайших метеорологических станциях:
Партнеры нашего сайта:
Терморегуляторы для теплых полов, термостаты
пола от официального дилера в Москве. Подробнее
eastec.ru

     
Пояснения к столбцам:
  • Ветер - указаны скорость ветра в м/с - средняя за 10 мин, порывы в срок и между сроками (в фигурных скобках) и направление, откуда дует ветер: С - северный,
  • СВ - северо-восточный, В - восточный, ЮВ - юго-восточный, Ю - южный, ЮЗ - юго-западный, З - западный, СЗ - северо-западный.
  • Видимость - горизонтальная дальность видимости в метрах или километрах. При видимости от 1 до 10 км при отсутствии осадков обычно наблюдается дымка, при ухудшении видимости до 1 км и менее - туман. В сухую погоду видимость может ухудшаться дымом, пылью или мглою.
  • Явления - указаны атмосферные явления, наблюдавшиеся в срок или в последний час перед сроком; фигурными скобками обозначены явления, наблюдавшиеся между сроками (за 1-3 часа до срока); квадратными скобками обозначены град или гололедные отложения с указанием их диаметра в мм.
  • Облачность - указаны через наклонную черту общая и нижняя облачность в баллах и высота нижней границы облаков в метрах; квадратными скобками обозначены формы облаков: Ci - перистые, Cs - перисто-слоистые, Cc - перисто-кучевые, Ac - высококучевые, As - высокослоистые, Sc - слоисто-кучевые, Ns - слоисто-дождевые, Cu - кучевые, Cb - кучево-дождевые. Подробнее классификацию облаков см. в Атласе облаков (PDF).
  • T - Температура воздуха - температура, измеренная на высоте 2 м над землей.
  • Td - Температура точки росы - температура, при понижении до которой содержащийся в воздухе водяной пар достигнет насыщения.
  • f - Относительная влажность воздуха - влажноcть воздуха, измеренная на высоте 2 м над землей.
  • Te - Эффективная температура - температура, которую ощущает одетый по сезону человек в тени. Характеристика душности погоды. При расчете учитывается влияние влажности воздуха и скорости ветра на теплоощущения человека.
  • Tes - Эффективная температура на солнце - температура, которую ощущает человек, с поправкой на солнечный нагрев. Характеристика знойности погоды. Зависит от высоты солнца над горизонтом, облачности и скорости ветра. Ночью, в пасмурную погоду, а также при ветре 12 м/с и более поправка равна нулю.
  • P - Атмосферное давление - приведенное к уровню моря атмосферное давление.
  • Po - Атмосферное давление - измеренное на уровне метеостанции атмосферное давление.
  • Tmin - Минимальная температура - минимум температуры воздуха на высоте 2 м над землей.
  • Tmax - Максимальная температура - максимум температуры воздуха на высоте 2 м над землей.
  • R - Количество осадков - Количество выпавших осадков за период времени, мм. При наведении курсора мыши на число - период времени, за который выпало указанное количество осадков.
  • R24 - Количество осадков - Количество выпавших осадков за 24 часа, мм.
  • S - Снежный покров - Высота снежного покрова, см. При наведении курсора мыши на число - состояние снежного покрова и степень покрытия местности в баллах.